Location: Lalanga
(4.5882°N, 32.9072°E)
Time: 03:26:49
(UTC+00:00)

Cosmos 2219 Rocket - Pass Details

Date: 24 January 2020
Orbit: 827 x 848 km, 71.0° (Epoch: 18 February)

Event Time Altitude Azimuth Distance (km) Brightness Sun altitude
Rises 16:14:13 0° 332° (NNW) 3,384 5.5 -4.8°
Reaches altitude 10° 16:16:46 10° 326° (NW) 2,448 4.8 -5.4°
Maximum altitude 16:22:03 43° 255° (WSW) 1,160 3.7 -6.6°
Drops below altitude 10° 16:27:19 10° 185° (S) 2,440 4.9 -7.9°
Sets 16:29:52 0° 178° (S) 3,371 5.6 -8.5°
